When you browse on this site, cookies collect data to enhance your experience and personalize the content and advertising you see.
Visit our Privacy Policy to learn more. By continuing to use the site, you agree to this use of cookies and data.
  • In Hungary
  • List of Countries
  • For 7 days
  • Water Temperature
  • Satellite Maps
  • Weather Map
  • News
  • Weather Widgets
  • user-avatar
    Login

    Hourly Weather Primorsko

    Today, 17 January, Thursday

    Time Temperature Precipitation Wind Pressure Humidity
    00:00 +1°C° 0 mm 4 mps 762 mmHg 69%
    01:00 +2°C° 0 mm 3 mps 762 mmHg 69%
    02:00 +2°C° 0 mm 3 mps 762 mmHg 69%
    03:00 +2°C° 0 mm 3 mps 763 mmHg 70%
    04:00 +3°C° 0 mm 2 mps 763 mmHg 71%
    05:00 +3°C° 0 mm 2 mps 763 mmHg 73%
    06:00 +3°C° 0 mm 2 mps 763 mmHg 73%
    07:00 +3°C° 0 mm 2 mps 763 mmHg 73%
    08:00 +3°C° 0 mm 2 mps 764 mmHg 73%
    09:00 +5°C° 0 mm 2 mps 764 mmHg 67%
    10:00 +7°C° 0 mm 2 mps 764 mmHg 61%
    11:00 +8°C° 0 mm 2 mps 764 mmHg 55%
    12:00 +9°C° 0 mm 2 mps 764 mmHg 53%
    13:00 +10°C° 0 mm 2 mps 763 mmHg 51%
    14:00 +12°C° 0 mm 2 mps 763 mmHg 50%
    15:00 +10°C° 0 mm 2 mps 763 mmHg 55%
    16:00 +8°C° 0 mm 2 mps 763 mmHg 61%
    17:00 +7°C° 0 mm 2 mps 763 mmHg 67%
    18:00 +7°C° 0 mm 3 mps 763 mmHg 69%
    19:00 +5°C° 0 mm 3 mps 763 mmHg 70%
    20:00 +5°C° 0 mm 3 mps 763 mmHg 72%
    21:00 +5°C° 0 mm 3 mps 763 mmHg 76%
    22:00 +5°C° 0 mm 3 mps 763 mmHg 81%
    23:00 +5°C° 0 mm 3 mps 763 mmHg 85%

    Tomorrow, 18 January, Friday

    Time Temperature Precipitation Wind Pressure Humidity
    00:00 +5°C° 0 mm 3 mps 762 mmHg 85%
    01:00 +5°C° 0 mm 3 mps 762 mmHg 85%
    02:00 +5°C° 0 mm 3 mps 762 mmHg 85%
    03:00 +5°C° 0 mm 3 mps 762 mmHg 85%
    04:00 +5°C° 0 mm 3 mps 762 mmHg 86%
    05:00 +5°C° 0 mm 3 mps 761 mmHg 87%
    06:00 +5°C° 0 mm 3 mps 761 mmHg 87%
    07:00 +5°C° 0 mm 3 mps 762 mmHg 88%
    08:00 +5°C° 0 mm 3 mps 762 mmHg 88%
    09:00 +8°C° 0 mm 3 mps 762 mmHg 82%
    10:00 +8°C° 0 mm 4 mps 762 mmHg 76%
    11:00 +11°C° 0 mm 4 mps 762 mmHg 71%
    12:00 +12°C° 0 mm 4 mps 761 mmHg 69%
    13:00 +12°C° 0 mm 4 mps 761 mmHg 67%
    14:00 +13°C° 0 mm 5 mps 761 mmHg 65%
    15:00 +12°C° 0 mm 4 mps 760 mmHg 70%
    16:00 +11°C° 0 mm 4 mps 760 mmHg 74%
    17:00 +10°C° 0 mm 4 mps 760 mmHg 78%
    18:00 +10°C° 0 mm 4 mps 760 mmHg 80%
    19:00 +10°C° 0 mm 4 mps 761 mmHg 82%
    20:00 +8°C° 0 mm 4 mps 761 mmHg 84%
    21:00 +8°C° 0 mm 4 mps 761 mmHg 85%
    22:00 +8°C° 0 mm 4 mps 761 mmHg 85%
    23:00 +8°C° 0 mm 4 mps 761 mmHg 85%

    Day after tomorrow, 19 January, Saturday

    Time Temperature Precipitation Wind Pressure Humidity
    00:00 +8°C° 0 mm 4 mps 761 mmHg 86%
    01:00 +9°C° 0 mm 3 mps 761 mmHg 86%
    02:00 +9°C° 0 mm 3 mps 762 mmHg 87%
    03:00 +8°C° 0 mm 3 mps 762 mmHg 86%
    04:00 +8°C° 0 mm 3 mps 762 mmHg 86%
    05:00 +8°C° 0 mm 2 mps 762 mmHg 85%
    06:00 +7°C° 0 mm 2 mps 762 mmHg 85%
    07:00 +7°C° 0 mm 2 mps 763 mmHg 85%
    08:00 +7°C° 0 mm 2 mps 763 mmHg 85%
    09:00 +7°C° 0 mm 3 mps 764 mmHg 79%
    10:00 +8°C° 0 mm 3 mps 764 mmHg 73%
    11:00 +9°C° 0 mm 3 mps 764 mmHg 67%
    12:00 +8°C° 0 mm 3 mps 764 mmHg 69%
    13:00 +7°C° 0 mm 4 mps 764 mmHg 71%
    14:00 +6°C° 0 mm 4 mps 764 mmHg 72%
    15:00 +6°C° 0.2 mm 4 mps 764 mmHg 77%
    16:00 +5°C° 0.2 mm 4 mps 764 mmHg 81%
    17:00 +4°C° 0.2 mm 4 mps 764 mmHg 86%
    18:00 +4°C° 0.5 mm 4 mps 764 mmHg 88%
    19:00 +4°C° 0.5 mm 4 mps 764 mmHg 89%
    20:00 +4°C° 0.5 mm 4 mps 765 mmHg 91%
    21:00 +4°C° 0.4 mm 4 mps 764 mmHg 91%
    22:00 +5°C° 0.4 mm 4 mps 764 mmHg 91%
    23:00 +5°C° 0.4 mm 4 mps 764 mmHg 91%

    20 January, Sunday

    Time Temperature Precipitation Wind Pressure Humidity
    00:00 +5°C° 0.4 mm 4 mps 764 mmHg 92%
    01:00 +5°C° 0.4 mm 4 mps 764 mmHg 93%
    02:00 +5°C° 0.4 mm 3 mps 764 mmHg 94%
    03:00 +5°C° 0.2 mm 3 mps 764 mmHg 94%
    04:00 +5°C° 0.2 mm 3 mps 763 mmHg 95%
    05:00 +7°C° 0.2 mm 3 mps 763 mmHg 95%
    06:00 +6°C° 0.1 mm 4 mps 763 mmHg 96%
    07:00 +6°C° 0.1 mm 4 mps 763 mmHg 96%
    08:00 +6°C° 0.1 mm 4 mps 763 mmHg 96%
    09:00 +7°C° 0.1 mm 4 mps 763 mmHg 94%
    10:00 +8°C° 0.1 mm 4 mps 763 mmHg 92%
    11:00 +8°C° 0.1 mm 4 mps 762 mmHg 90%
    12:00 +10°C° 0 mm 4 mps 762 mmHg 86%
    13:00 +11°C° 0 mm 3 mps 761 mmHg 83%
    14:00 +11°C° 0 mm 3 mps 761 mmHg 79%
    15:00 +11°C° 0.1 mm 3 mps 761 mmHg 82%
    16:00 +10°C° 0.1 mm 3 mps 760 mmHg 85%
    17:00 +10°C° 0.1 mm 3 mps 760 mmHg 88%
    18:00 +10°C° 0.3 mm 3 mps 760 mmHg 89%
    19:00 +10°C° 0.3 mm 3 mps 760 mmHg 89%
    20:00 +10°C° 0.3 mm 3 mps 760 mmHg 90%
    21:00 +10°C° 0.3 mm 3 mps 760 mmHg 90%
    22:00 +9°C° 0.3 mm 3 mps 760 mmHg 90%
    23:00 +9°C° 0.3 mm 3 mps 760 mmHg 90%

    21 January, Monday

    Time Temperature Precipitation Wind Pressure Humidity
    00:00 +9°C° 0.1 mm 2 mps 760 mmHg 91%
    01:00 +9°C° 0.1 mm 2 mps 760 mmHg 91%
    02:00 +9°C° 0.1 mm 2 mps 760 mmHg 91%
    03:00 +9°C° 0 mm 2 mps 760 mmHg 92%
    04:00 +8°C° 0 mm 3 mps 760 mmHg 92%
    05:00 +8°C° 0 mm 3 mps 760 mmHg 93%
    06:00 +8°C° 0.1 mm 3 mps 761 mmHg 91%
    07:00 +7°C° 0.1 mm 2 mps 761 mmHg 90%
    08:00 +7°C° 0.1 mm 2 mps 762 mmHg 89%
    09:00 +8°C° 0 mm 2 mps 762 mmHg 84%
    10:00 +8°C° 0 mm 2 mps 762 mmHg 79%
    11:00 +9°C° 0 mm 2 mps 763 mmHg 74%
    12:00 +9°C° 0 mm 2 mps 763 mmHg 72%
    13:00 +10°C° 0 mm 2 mps 763 mmHg 70%
    14:00 +10°C° 0 mm 2 mps 762 mmHg 68%
    15:00 +9°C° 0 mm 2 mps 763 mmHg 70%
    16:00 +9°C° 0 mm 2 mps 763 mmHg 73%
    17:00 +8°C° 0 mm 2 mps 763 mmHg 76%
    18:00 +8°C° 0 mm 2 mps 763 mmHg 76%
    19:00 +7°C° 0 mm 2 mps 764 mmHg 76%
    20:00 +7°C° 0 mm 2 mps 764 mmHg 75%
    21:00 +7°C° 0 mm 3 mps 764 mmHg 76%
    22:00 +7°C° 0 mm 3 mps 764 mmHg 77%
    23:00 +7°C° 0 mm 3 mps 764 mmHg 78%

    22 January, Tuesday

    Time Temperature Precipitation Wind Pressure Humidity
    00:00 +5°C° 0 mm 3 mps 764 mmHg 81%
    01:00 +5°C° 0 mm 4 mps 764 mmHg 84%
    02:00 +5°C° 0 mm 4 mps 764 mmHg 86%
    03:00 +5°C° 0 mm 4 mps 763 mmHg 87%
    04:00 +5°C° 0 mm 4 mps 763 mmHg 88%
    05:00 +5°C° 0 mm 4 mps 763 mmHg 89%
    06:00 +5°C° 0 mm 5 mps 763 mmHg 89%
    07:00 +5°C° 0 mm 5 mps 762 mmHg 89%
    08:00 +5°C° 0 mm 5 mps 762 mmHg 90%
    09:00 +5°C° 0.1 mm 6 mps 762 mmHg 89%
    10:00 +5°C° 0.1 mm 6 mps 762 mmHg 89%
    11:00 +7°C° 0.1 mm 6 mps 761 mmHg 89%
    12:00 +7°C° 0.1 mm 6 mps 761 mmHg 89%
    13:00 +7°C° 0.1 mm 6 mps 760 mmHg 89%
    14:00 +8°C° 0.1 mm 6 mps 759 mmHg 89%
    15:00 +8°C° 0 mm 6 mps 759 mmHg 89%
    16:00 +8°C° 0 mm 6 mps 758 mmHg 88%
    17:00 +8°C° 0 mm 6 mps 757 mmHg 88%
    18:00 +8°C° 0 mm 5 mps 757 mmHg 86%
    19:00 +8°C° 0 mm 5 mps 757 mmHg 85%
    20:00 +10°C° 0 mm 4 mps 757 mmHg 83%
    21:00 +9°C° 0 mm 5 mps 756 mmHg 82%
    22:00 +9°C° 0 mm 5 mps 756 mmHg 81%
    23:00 +9°C° 0 mm 5 mps 756 mmHg 80%
    Show more